Preview of NWS' New Version of Forecast
This preview is not operational and should not be used for support decisions.

Regional Weather Roundup (RWR)

Issued by National Weather Service (NWS)

                            
000
ASUS45 KSLC 171910
RWRUT 

UTAH REGIONAL WEATHER ROUNDUP
NATIONAL WEATHER SERVICE SALT LAKE CITY UT
1200 PM MST MON DEC 17 2018

UTZ001>011-023>025-172000-

NORTHERN UTAH
  
CITY           SKY/WX    TMP DP  RH WIND       PRES   REMARKS
BRIGHAM CITY   CLOUDY    37  29  72 CALM      30.15F                  
DUGWAY         FRZ RAIN  31  26  83 E3        30.15F                  
HILL AFB       PTSUNNY   44  26  48 CALM      30.13F                  
LOGAN            N/A     27  21  78 NE3       30.15F HAZE             
OGDEN          CLOUDY    36  27  69 S3        30.15                   
SALT LAKE CITY CLOUDY    37  30  75 SW3       30.15F                  
TOOELE VALLEY  CLOUDY    32  30  93 SW3       30.15F FOG              
WENDOVER       CLOUDY    33  27  78 E3        30.16                   
HEBER CITY       N/A     34  27  75 E3        30.14F                  
WEST JORDAN    CLOUDY    38  31  77 NW8       30.14F WCI  32          

$$

UTZ011>015-024>027-172000-

CENTRAL/NORTHEAST UTAH
  
CITY           SKY/WX    TMP DP  RH WIND       PRES   REMARKS
PROVO AIRPORT  CLOUDY    39  31  72 N3        30.17S                  
MOAB/CANYONLAN CLOUDY    32  24  72 CALM      30.22F                  
DELTA          CLOUDY    43  25  49 S12       30.17S                  
PRICE          CLOUDY    34  23  64 CALM      30.19F                  
ROOSEVELT      CLOUDY    27  19  74 SE3       30.26F                  
VERNAL         PTSUNNY   28  19  69 CALM      30.22F                  

$$

UTZ013>016-019>022-027-172000-

SOUTHERN UTAH
  
CITY           SKY/WX    TMP DP  RH WIND       PRES   REMARKS
BRYCE CANYON     N/A     37  22  54 CALM      30.22F                  
CEDAR CITY     CLOUDY    46  19  34 S10       30.14F                  
MILFORD        CLOUDY    44  25  47 S5        30.14F                  
ST GEORGE      CLOUDY    45  26  47 W6        30.19F                  
HANKSVILLE     CLOUDY    32  27  80 CALM      30.26F                  
BLANDING         N/A     39  20  46 CALM      30.30F                  

$$

REGIONAL REPORTS     COLORADO/ARIZONA
  
CITY           SKY/WX    TMP DP  RH WIND       PRES   REMARKS
CRAIG, CO      MOSUNNY   31  19  61 CALM      30.19F                  
GRAND JUNCTION CLOUDY    36  22  56 N6        30.21F WCI  31          
RIFLE, CO      CLOUDY    32  21  64 CALM      30.22F                  
MONTROSE, CO   CLOUDY    40  19  43 CALM      30.22F                  
CORTEZ, CO     CLOUDY    41  23  48 CALM      30.22F                  
COLORADO CITY  MOCLDY    48  21  34 SE6       30.22F                  
PAGE, AZ       CLOUDY    42  24  49 N3        30.21F                  
GRAND CANYON   PTSUNNY   45  28  51 SW12      30.23F                  
KINGMAN, AZ    CLOUDY    55  18  23 SW7       30.19S                  
FLAGSTAFF, AZ  CLOUDY    45  24  43 SW10      30.23F                  

$$

REGIONAL REPORTS    NEVADA/IDAHO/WYOMING
  
CITY           SKY/WX    TMP DP  RH WIND       PRES   REMARKS
LAS VEGAS, NV  PTSUNNY   55  26  32 CALM      30.13F                  
ELY, NY        CLOUDY    37  30  75 SW8       30.16F WCI  31          
ELKO, NV       CLOUDY    42  32  67 CALM      30.12F                  
POCATELLO, ID  CLOUDY    31  24  75 CALM      30.11S                  
BURLEY, ID     CLOUDY    41  26  55 NW5       30.09S                  
FORT BRIDGER,  CLOUDY    21  18  86 CALM      30.17F                  
EVANSTON, WY   CLOUDY    36  20  52 SW9       30.13F WCI  29          
ROCK SPRINGS,  PTSUNNY   24  16  71 CALM      30.14F                  
KEMMERER, WY   CLOUDY    27  16  63 CALM      30.13F                  

$$